QFA905 YBSU-YSSY

Flight info

Callsign QFA905
Flight time 1h 22m
Altitude 36000
Route SU Q35 SANEG H91 IGDAM H652 TESAT
Aircraft B738/M-SDE2E3FGHIRWXY/LB1

Departure

Time 2026-04-25 02:59
Airport Sunshine Coast Airport (YBSU)

Arrival

Time 2026-04-25 04:22
Airport Sydney Kingsford Smith International Airport (YSSY)
Time Latitude Longitude Altitude Speed Heading
2026-04-25 02:17 -26.60567 153.08956 25 ft 0 kts 284°
2026-04-25 02:46 -26.60567 153.08957 23 ft 1 kts 284°
2026-04-25 02:46 -26.60570 153.08973 29 ft 3 kts 284°
2026-04-25 02:46 -26.60575 153.08995 27 ft 3 kts 284°
2026-04-25 02:46 -26.60580 153.09017 28 ft 2 kts 284°
2026-04-25 02:47 -26.60586 153.09035 26 ft 3 kts 313°
2026-04-25 02:47 -26.60601 153.09045 27 ft 3 kts 352°
2026-04-25 02:47 -26.60620 153.09045 26 ft 2 kts 12°
2026-04-25 02:47 -26.60627 153.09044 26 ft 0 kts 15°
2026-04-25 02:50 -26.60626 153.09044 26 ft 1 kts 15°
2026-04-25 02:50 -26.60589 153.09055 28 ft 8 kts 15°
2026-04-25 02:50 -26.60527 153.09072 24 ft 11 kts 11°
2026-04-25 02:51 -26.60443 153.09041 27 ft 14 kts 324°
2026-04-25 02:51 -26.60360 153.08970 24 ft 19 kts 322°
2026-04-25 02:51 -26.60245 153.08869 25 ft 23 kts 322°
2026-04-25 02:51 -26.60122 153.08764 23 ft 22 kts 322°
2026-04-25 02:52 -26.60002 153.08663 25 ft 21 kts 323°
2026-04-25 02:52 -26.59884 153.08565 28 ft 21 kts 322°
2026-04-25 02:52 -26.59772 153.08468 25 ft 20 kts 322°
2026-04-25 02:52 -26.59656 153.08370 23 ft 22 kts 323°
2026-04-25 02:53 -26.59527 153.08261 24 ft 21 kts 323°
2026-04-25 02:53 -26.59452 153.08200 27 ft 10 kts 330°
2026-04-25 02:53 -26.59390 153.08221 23 ft 10 kts 52°
2026-04-25 02:53 -26.59347 153.08282 24 ft 10 kts 39°
2026-04-25 02:54 -26.59278 153.08281 21 ft 11 kts 326°
2026-04-25 02:54 -26.59204 153.08218 22 ft 17 kts 322°
2026-04-25 02:54 -26.59074 153.08108 26 ft 29 kts 323°
2026-04-25 02:54 -26.58899 153.07959 26 ft 33 kts 323°
2026-04-25 02:55 -26.58725 153.07812 26 ft 31 kts 323°
2026-04-25 02:55 -26.58561 153.07673 24 ft 27 kts 323°
2026-04-25 02:55 -26.58462 153.07574 22 ft 15 kts 304°
2026-04-25 02:55 -26.58421 153.07476 21 ft 13 kts 305°
2026-04-25 02:56 -26.58363 153.07439 22 ft 8 kts 11°
2026-04-25 02:56 -26.58353 153.07491 22 ft 8 kts 125°
2026-04-25 02:56 -26.58389 153.07526 22 ft 0 kts 141°
2026-04-25 02:58 -26.58408 153.07542 22 ft 18 kts 142°
2026-04-25 02:58 -26.58760 153.07842 24 ft 108 kts 142°
2026-04-25 02:59 -26.59539 153.08492 329 ft 160 kts 144°
2026-04-25 02:59 -26.60469 153.09320 1274 ft 180 kts 142°
2026-04-25 02:59 -26.61451 153.10160 2053 ft 175 kts 143°
2026-04-25 02:59 -26.62437 153.10998 2800 ft 180 kts 141°
2026-04-25 03:00 -26.63438 153.11846 3505 ft 185 kts 141°
2026-04-25 03:00 -26.64513 153.12821 3697 ft 212 kts 134°
2026-04-25 03:00 -26.65563 153.14109 4008 ft 234 kts 130°
2026-04-25 03:00 -26.66645 153.15531 4754 ft 242 kts 129°
2026-04-25 03:01 -26.67723 153.16954 5757 ft 241 kts 129°
2026-04-25 03:01 -26.68828 153.18406 6540 ft 248 kts 129°
2026-04-25 03:01 -26.69950 153.19874 7431 ft 249 kts 129°
2026-04-25 03:01 -26.71083 153.21349 8188 ft 255 kts 130°
2026-04-25 03:02 -26.72245 153.22861 9022 ft 258 kts 130°
2026-04-25 03:02 -26.73428 153.24397 9852 ft 262 kts 130°
2026-04-25 03:02 -26.74633 153.25960 10599 ft 269 kts 130°
2026-04-25 03:02 -26.75907 153.27615 10836 ft 294 kts 130°
2026-04-25 03:03 -26.77277 153.29392 11336 ft 305 kts 130°
2026-04-25 03:03 -26.78680 153.31210 12123 ft 309 kts 130°
2026-04-25 03:03 -26.80078 153.33023 12832 ft 315 kts 130°
2026-04-25 03:03 -26.81619 153.34773 13634 ft 318 kts 143°
2026-04-25 03:04 -26.83608 153.35902 14356 ft 326 kts 160°
2026-04-25 03:04 -26.85881 153.36280 15011 ft 335 kts 176°
2026-04-25 03:04 -26.88224 153.36253 15717 ft 339 kts 178°
2026-04-25 03:05 -26.92993 153.36051 17093 ft 346 kts 179°
2026-04-25 03:05 -26.95418 153.35947 17788 ft 350 kts 179°
2026-04-25 03:05 -26.97854 153.35851 18562 ft 351 kts 179°
2026-04-25 03:05 -27.00311 153.35763 19115 ft 355 kts 179°
2026-04-25 03:06 -27.02787 153.35680 19686 ft 358 kts 179°
2026-04-25 03:06 -27.05292 153.35598 20282 ft 361 kts 180°
2026-04-25 03:06 -27.07802 153.35518 20921 ft 361 kts 180°
2026-04-25 03:06 -27.10303 153.35439 21445 ft 366 kts 180°
2026-04-25 03:07 -27.12862 153.35359 21999 ft 369 kts 180°
2026-04-25 03:07 -27.15435 153.35279 22570 ft 372 kts 180°
2026-04-25 03:07 -27.18036 153.35198 23084 ft 376 kts 180°
2026-04-25 03:07 -27.20663 153.35115 23655 ft 378 kts 180°
2026-04-25 03:08 -27.23301 153.35033 24164 ft 380 kts 180°
2026-04-25 03:08 -27.25966 153.34950 24557 ft 384 kts 180°
2026-04-25 03:08 -27.28660 153.34866 24972 ft 387 kts 180°
2026-04-25 03:08 -27.31351 153.34780 25476 ft 388 kts 180°
2026-04-25 03:09 -27.34072 153.34658 25845 ft 393 kts 185°
2026-04-25 03:09 -27.36739 153.34092 26231 ft 398 kts 194°
2026-04-25 03:09 -27.39379 153.33053 26580 ft 404 kts 202°
2026-04-25 03:09 -27.41860 153.31545 27022 ft 407 kts 208°
2026-04-25 03:10 -27.44298 153.29899 27360 ft 411 kts 210°
2026-04-25 03:10 -27.46750 153.28204 27667 ft 416 kts 210°
2026-04-25 03:10 -27.49230 153.26491 27997 ft 420 kts 209°
2026-04-25 03:10 -27.51732 153.24775 28387 ft 422 kts 209°
2026-04-25 03:11 -27.54250 153.23058 28781 ft 423 kts 209°
2026-04-25 03:11 -27.56776 153.21346 29217 ft 423 kts 209°
2026-04-25 03:11 -27.59299 153.19639 29710 ft 423 kts 209°
2026-04-25 03:11 -27.61824 153.17933 30187 ft 422 kts 209°
2026-04-25 03:12 -27.64344 153.16231 30577 ft 423 kts 209°
2026-04-25 03:12 -27.66843 153.14540 31231 ft 414 kts 208°
2026-04-25 03:12 -27.69248 153.12910 32048 ft 402 kts 209°
2026-04-25 03:12 -27.71627 153.11298 32598 ft 398 kts 208°
2026-04-25 03:13 -27.74011 153.09684 32889 ft 399 kts 208°
2026-04-25 03:13 -27.76403 153.08064 33204 ft 400 kts 209°
2026-04-25 03:13 -27.78775 153.06455 33703 ft 396 kts 209°
2026-04-25 03:13 -27.81124 153.04870 34221 ft 391 kts 207°
2026-04-25 03:14 -27.83561 153.03550 34599 ft 386 kts 200°
2026-04-25 03:14 -27.86064 153.02455 34852 ft 386 kts 199°
2026-04-25 03:14 -27.88590 153.01380 35057 ft 388 kts 199°
2026-04-25 03:14 -27.91114 153.00305 35336 ft 387 kts 199°
2026-04-25 03:15 -27.92784 152.99589 35536 ft 386 kts 199°
2026-04-25 03:15 -27.96136 152.98136 35892 ft 386 kts 199°
2026-04-25 03:15 -27.97800 152.97410 36039 ft 386 kts 199°
2026-04-25 03:15 -28.01122 152.95956 36311 ft 387 kts 200°
2026-04-25 03:16 -28.06165 152.93745 36303 ft 387 kts 199°
2026-04-25 03:16 -28.10326 152.91917 36307 ft 384 kts 200°
2026-04-25 03:17 -28.15277 152.89717 36312 ft 381 kts 200°
2026-04-25 03:17 -28.20208 152.87518 36317 ft 379 kts 200°
2026-04-25 03:18 -28.25113 152.85330 36323 ft 379 kts 200°
2026-04-25 03:18 -28.29999 152.83150 36323 ft 379 kts 200°
2026-04-25 03:19 -28.34923 152.80951 36329 ft 381 kts 200°
2026-04-25 03:19 -28.39865 152.78741 36345 ft 383 kts 199°
2026-04-25 03:20 -28.44846 152.76512 36320 ft 385 kts 200°
2026-04-25 03:20 -28.49847 152.74272 36327 ft 387 kts 200°
2026-04-25 03:21 -28.54864 152.72021 36322 ft 388 kts 199°
2026-04-25 03:21 -28.59865 152.69776 36331 ft 388 kts 199°
2026-04-25 03:22 -28.64882 152.67521 36326 ft 387 kts 199°
2026-04-25 03:22 -28.69888 152.65269 36330 ft 386 kts 199°
2026-04-25 03:23 -28.74872 152.63024 36335 ft 384 kts 199°
2026-04-25 03:23 -28.79828 152.60790 36330 ft 381 kts 199°
2026-04-25 03:24 -28.84751 152.58559 36333 ft 380 kts 201°
2026-04-25 03:24 -28.89450 152.55881 36333 ft 380 kts 205°
2026-04-25 03:25 -28.94124 152.53068 36346 ft 379 kts 205°
2026-04-25 03:25 -28.98793 152.50266 36335 ft 379 kts 205°
2026-04-25 03:26 -29.03461 152.47478 36346 ft 378 kts 205°
2026-04-25 03:26 -29.08129 152.44695 36355 ft 378 kts 204°
2026-04-25 03:27 -29.12800 152.41910 36352 ft 379 kts 205°
2026-04-25 03:27 -29.17475 152.39120 36352 ft 379 kts 205°
2026-04-25 03:28 -29.22152 152.36324 36361 ft 379 kts 205°
2026-04-25 03:28 -29.26831 152.33526 36355 ft 380 kts 205°
2026-04-25 03:29 -29.31512 152.30723 36350 ft 380 kts 204°
2026-04-25 03:29 -29.36188 152.27920 36351 ft 379 kts 204°
2026-04-25 03:30 -29.40852 152.25121 36361 ft 378 kts 204°
2026-04-25 03:30 -29.45505 152.22326 36365 ft 377 kts 204°
2026-04-25 03:31 -29.50161 152.19526 36348 ft 377 kts 204°
2026-04-25 03:31 -29.54767 152.16753 36350 ft 376 kts 204°
2026-04-25 03:32 -29.59391 152.13966 36350 ft 375 kts 204°
2026-04-25 03:32 -29.64001 152.11185 36360 ft 373 kts 204°
2026-04-25 03:33 -29.68596 152.08416 36360 ft 372 kts 202°
2026-04-25 03:33 -29.73443 152.06560 36370 ft 365 kts 190°
2026-04-25 03:34 -29.78409 152.05299 36359 ft 365 kts 190°
2026-04-25 03:34 -29.83359 152.04033 36344 ft 367 kts 190°
2026-04-25 03:35 -29.88354 152.02738 36349 ft 368 kts 190°
2026-04-25 03:35 -29.93356 152.01432 36342 ft 368 kts 190°
2026-04-25 03:36 -29.98328 152.00131 36352 ft 369 kts 190°
2026-04-25 03:36 -30.03336 151.98818 36352 ft 369 kts 190°
2026-04-25 03:37 -30.08342 151.97505 36360 ft 369 kts 190°
2026-04-25 03:37 -30.13354 151.96189 36355 ft 369 kts 190°
2026-04-25 03:38 -30.18369 151.94870 36356 ft 369 kts 190°
2026-04-25 03:38 -30.23347 151.93560 36360 ft 369 kts 190°
2026-04-25 03:39 -30.28356 151.92241 36368 ft 369 kts 190°
2026-04-25 03:39 -30.33332 151.90774 36359 ft 371 kts 197°
2026-04-25 03:40 -30.38137 151.88551 36357 ft 371 kts 199°
2026-04-25 03:40 -30.42893 151.86302 36361 ft 371 kts 199°
2026-04-25 03:41 -30.47680 151.84051 36364 ft 371 kts 198°
2026-04-25 03:41 -30.52473 151.81808 36366 ft 371 kts 198°
2026-04-25 03:42 -30.57263 151.79569 36361 ft 371 kts 198°
2026-04-25 03:42 -30.62022 151.77344 36362 ft 371 kts 198°
2026-04-25 03:43 -30.66804 151.75105 36366 ft 370 kts 198°
2026-04-25 03:43 -30.71588 151.72863 36365 ft 370 kts 198°
2026-04-25 03:44 -30.76362 151.70623 36359 ft 370 kts 198°
2026-04-25 03:44 -30.81139 151.68380 36360 ft 370 kts 198°
2026-04-25 03:45 -30.85920 151.66133 36361 ft 370 kts 198°
2026-04-25 03:45 -30.90672 151.63896 36359 ft 371 kts 198°
2026-04-25 03:46 -30.95459 151.61641 36366 ft 371 kts 198°
2026-04-25 03:46 -31.00253 151.59380 36359 ft 371 kts 198°
2026-04-25 03:47 -31.05051 151.57114 36361 ft 371 kts 198°
2026-04-25 03:47 -31.09846 151.54847 36362 ft 372 kts 198°
2026-04-25 03:48 -31.14609 151.52593 36358 ft 372 kts 198°
2026-04-25 03:48 -31.19409 151.50319 36364 ft 372 kts 198°
2026-04-25 03:49 -31.24212 151.48041 36352 ft 372 kts 198°
2026-04-25 03:49 -31.29009 151.45763 36356 ft 372 kts 198°
2026-04-25 03:50 -31.33808 151.43482 36361 ft 372 kts 198°
2026-04-25 03:50 -31.38577 151.41213 36359 ft 372 kts 198°
2026-04-25 03:51 -31.43405 151.39027 36354 ft 372 kts 197°
2026-04-25 03:51 -31.48247 151.36889 36355 ft 372 kts 197°
2026-04-25 03:52 -31.53087 151.34742 36355 ft 372 kts 197°
2026-04-25 03:52 -31.57933 151.32581 36350 ft 373 kts 198°
2026-04-25 03:53 -31.62785 151.30412 36363 ft 373 kts 198°
2026-04-25 03:53 -31.67615 151.28249 36359 ft 372 kts 198°
2026-04-25 03:54 -31.72464 151.26075 36365 ft 373 kts 198°
2026-04-25 03:54 -31.77324 151.23895 36351 ft 374 kts 198°
2026-04-25 03:55 -31.82186 151.21710 36372 ft 374 kts 198°
2026-04-25 03:55 -31.87056 151.19519 36350 ft 375 kts 198°
2026-04-25 03:56 -31.91934 151.17323 36350 ft 375 kts 198°
2026-04-25 03:56 -31.96815 151.15128 36356 ft 375 kts 198°
2026-04-25 03:57 -32.01678 151.12950 36347 ft 375 kts 198°
2026-04-25 03:57 -32.06563 151.10760 36360 ft 375 kts 198°
2026-04-25 03:58 -32.09012 151.09661 36159 ft 379 kts 198°
2026-04-25 03:58 -32.11489 151.08549 35730 ft 381 kts 198°
2026-04-25 03:58 -32.13968 151.07435 35189 ft 381 kts 198°
2026-04-25 03:58 -32.16453 151.06316 34625 ft 384 kts 198°
2026-04-25 03:59 -32.18953 151.05191 33999 ft 386 kts 198°
2026-04-25 03:59 -32.21451 151.04066 33327 ft 390 kts 198°
2026-04-25 03:59 -32.23992 151.02921 32684 ft 392 kts 198°
2026-04-25 03:59 -32.26540 151.01771 32203 ft 391 kts 198°
2026-04-25 04:00 -32.29076 151.00626 31710 ft 390 kts 198°
2026-04-25 04:00 -32.31609 150.99481 31228 ft 389 kts 198°
2026-04-25 04:00 -32.34135 150.98340 30754 ft 388 kts 198°
2026-04-25 04:00 -32.36659 150.97199 30250 ft 387 kts 198°
2026-04-25 04:01 -32.39181 150.96057 29689 ft 387 kts 198°
2026-04-25 04:01 -32.41687 150.94923 29156 ft 385 kts 198°
2026-04-25 04:01 -32.44150 150.93808 28678 ft 382 kts 198°
2026-04-25 04:01 -32.46634 150.92691 28165 ft 381 kts 196°
2026-04-25 04:02 -32.49182 150.91951 27668 ft 375 kts 186°
2026-04-25 04:02 -32.51765 150.91699 27393 ft 366 kts 178°
2026-04-25 04:02 -32.54260 150.91902 27239 ft 354 kts 171°
2026-04-25 04:02 -32.56687 150.92329 26841 ft 352 kts 169°
2026-04-25 04:03 -32.59106 150.92791 26371 ft 353 kts 169°
2026-04-25 04:03 -32.61529 150.93253 25936 ft 352 kts 169°
2026-04-25 04:03 -32.63130 150.93554 25686 ft 351 kts 169°
2026-04-25 04:03 -32.65532 150.93999 25317 ft 349 kts 169°
2026-04-25 04:04 -32.67928 150.94436 24953 ft 347 kts 169°
2026-04-25 04:04 -32.70307 150.94867 24563 ft 346 kts 169°
2026-04-25 04:04 -32.72684 150.95296 24172 ft 345 kts 169°
2026-04-25 04:04 -32.75060 150.95724 23744 ft 344 kts 169°
2026-04-25 04:05 -32.77424 150.96151 23335 ft 342 kts 169°
2026-04-25 04:05 -32.79769 150.96573 22916 ft 340 kts 169°
2026-04-25 04:05 -32.82105 150.96988 22490 ft 339 kts 169°
2026-04-25 04:05 -32.84436 150.97401 22067 ft 338 kts 169°
2026-04-25 04:06 -32.86725 150.97806 21681 ft 337 kts 169°
2026-04-25 04:06 -32.89044 150.98216 21280 ft 335 kts 170°
2026-04-25 04:06 -32.91351 150.98626 20897 ft 334 kts 170°
2026-04-25 04:06 -32.93655 150.99035 20507 ft 333 kts 169°
2026-04-25 04:07 -32.95941 150.99441 20128 ft 332 kts 170°
2026-04-25 04:07 -32.98227 150.99848 19759 ft 331 kts 170°
2026-04-25 04:07 -33.00508 151.00254 19394 ft 330 kts 170°
2026-04-25 04:07 -33.02778 151.00658 19040 ft 329 kts 170°
2026-04-25 04:08 -33.05036 151.01060 18688 ft 328 kts 170°
2026-04-25 04:08 -33.07289 151.01462 18307 ft 327 kts 169°
2026-04-25 04:08 -33.09504 151.01857 17952 ft 325 kts 170°
2026-04-25 04:08 -33.11729 151.02254 17602 ft 322 kts 170°
2026-04-25 04:09 -33.13944 151.02650 17233 ft 321 kts 170°
2026-04-25 04:09 -33.16147 151.03043 16873 ft 319 kts 170°
2026-04-25 04:09 -33.18340 151.03435 16527 ft 317 kts 169°
2026-04-25 04:09 -33.20518 151.03825 16179 ft 316 kts 170°
2026-04-25 04:10 -33.22685 151.04212 15853 ft 314 kts 170°
2026-04-25 04:10 -33.24844 151.04605 15499 ft 313 kts 169°
2026-04-25 04:10 -33.26994 151.05014 15161 ft 311 kts 169°
2026-04-25 04:10 -33.29125 151.05425 14837 ft 310 kts 169°
2026-04-25 04:11 -33.33369 151.06246 14188 ft 307 kts 169°
2026-04-25 04:11 -33.35473 151.06652 13835 ft 306 kts 169°
2026-04-25 04:11 -33.37558 151.07055 13643 ft 299 kts 169°
2026-04-25 04:12 -33.39546 151.07438 13549 ft 290 kts 169°
2026-04-25 04:12 -33.41525 151.07819 13300 ft 287 kts 169°
2026-04-25 04:12 -33.43491 151.08200 12966 ft 286 kts 169°
2026-04-25 04:12 -33.45453 151.08579 12648 ft 284 kts 169°
2026-04-25 04:13 -33.47404 151.08939 12344 ft 283 kts 171°
2026-04-25 04:13 -33.49352 151.09252 12051 ft 282 kts 171°
2026-04-25 04:13 -33.51294 151.09555 11754 ft 281 kts 171°
2026-04-25 04:13 -33.53228 151.09858 11454 ft 280 kts 171°
2026-04-25 04:14 -33.55139 151.10159 11089 ft 275 kts 171°
2026-04-25 04:14 -33.57043 151.10462 10593 ft 276 kts 171°
2026-04-25 04:14 -33.58947 151.10766 10176 ft 275 kts 171°
2026-04-25 04:14 -33.60831 151.11067 9714 ft 272 kts 171°
2026-04-25 04:15 -33.62711 151.11370 9241 ft 271 kts 171°
2026-04-25 04:15 -33.64576 151.11670 8759 ft 270 kts 171°
2026-04-25 04:15 -33.66428 151.11969 8316 ft 268 kts 171°
2026-04-25 04:15 -33.68211 151.12255 8127 ft 257 kts 171°
2026-04-25 04:16 -33.69938 151.12533 8018 ft 243 kts 171°
2026-04-25 04:16 -33.71565 151.12794 7894 ft 231 kts 171°
2026-04-25 04:16 -33.73183 151.13035 7377 ft 237 kts 172°
2026-04-25 04:16 -33.74780 151.13262 7212 ft 219 kts 172°
2026-04-25 04:17 -33.76210 151.13541 6977 ft 202 kts 166°
2026-04-25 04:17 -33.77548 151.14002 6520 ft 198 kts 161°
2026-04-25 04:17 -33.78809 151.14538 6195 ft 183 kts 157°
2026-04-25 04:17 -33.79936 151.15116 5804 ft 174 kts 148°
2026-04-25 04:18 -33.81033 151.15778 5234 ft 178 kts 154°
2026-04-25 04:18 -33.82188 151.16193 4864 ft 169 kts 167°
2026-04-25 04:18 -33.83334 151.16357 4513 ft 163 kts 178°
2026-04-25 04:18 -33.84460 151.16340 4118 ft 162 kts 181°
2026-04-25 04:19 -33.85596 151.16456 3568 ft 167 kts 168°
2026-04-25 04:19 -33.86668 151.16768 3189 ft 153 kts 154°
2026-04-25 04:19 -33.87697 151.17118 2588 ft 156 kts 155°
2026-04-25 04:19 -33.88765 151.17342 2033 ft 154 kts 162°
2026-04-25 04:20 -33.89800 151.17561 1543 ft 148 kts 156°
2026-04-25 04:20 -33.90786 151.17811 1093 ft 141 kts 167°
2026-04-25 04:20 -33.91671 151.17979 965 ft 121 kts 166°
2026-04-25 04:20 -33.92523 151.18214 673 ft 130 kts 165°
2026-04-25 04:21 -33.93411 151.18427 468 ft 128 kts 165°
2026-04-25 04:21 -33.94271 151.18652 262 ft 125 kts 163°
2026-04-25 04:21 -33.95128 151.18868 53 ft 123 kts 163°
2026-04-25 04:21 -33.95874 151.19069 27 ft 83 kts 168°
2026-04-25 04:22 -33.96267 151.19168 28 ft 35 kts 167°
2026-04-25 04:22 -33.96438 151.19212 26 ft 23 kts 171°
2026-04-25 04:22 -33.96596 151.19211 25 ft 22 kts 194°
2026-04-25 04:22 -33.96691 151.19172 29 ft 11 kts 211°
2026-04-25 04:23 -33.96705 151.19095 29 ft 11 kts 303°
2026-04-25 04:23 -33.96639 151.19063 29 ft 10 kts 347°
2026-04-25 04:23 -33.96571 151.19044 29 ft 10 kts 347°
2026-04-25 04:23 -33.96504 151.19027 29 ft 10 kts 348°
2026-04-25 04:24 -33.96435 151.19009 29 ft 11 kts 348°
2026-04-25 04:24 -33.96351 151.18987 29 ft 15 kts 348°
2026-04-25 04:24 -33.96225 151.18954 29 ft 22 kts 348°
2026-04-25 04:24 -33.96058 151.18911 29 ft 27 kts 348°
2026-04-25 04:25 -33.95860 151.18860 29 ft 30 kts 348°
2026-04-25 04:25 -33.95664 151.18810 29 ft 28 kts 348°
2026-04-25 04:25 -33.95481 151.18762 29 ft 26 kts 347°
2026-04-25 04:25 -33.95311 151.18716 29 ft 24 kts 344°
2026-04-25 04:26 -33.95178 151.18611 29 ft 23 kts 316°
2026-04-25 04:26 -33.95112 151.18467 29 ft 19 kts 271°
2026-04-25 04:26 -33.95133 151.18325 29 ft 13 kts 258°
2026-04-25 04:26 -33.95141 151.18281 29 ft 0 kts 259°
2026-04-25 04:27 -33.95147 151.18249 29 ft 6 kts 257°
2026-04-25 04:27 -33.95153 151.18218 29 ft 3 kts 257°
2026-04-25 04:27 -33.95157 151.18196 29 ft 3 kts 256°
2026-04-25 04:28 -33.95163 151.18166 29 ft 8 kts 257°
2026-04-25 04:28 -33.95182 151.18059 29 ft 17 kts 258°
2026-04-25 04:28 -33.95132 151.17953 29 ft 16 kts 345°
2026-04-25 04:28 -33.95022 151.17923 29 ft 16 kts 348°
2026-04-25 04:29 -33.94916 151.17896 29 ft 15 kts 348°
2026-04-25 04:29 -33.94815 151.17869 29 ft 15 kts 348°
2026-04-25 04:29 -33.94716 151.17844 29 ft 15 kts 348°
2026-04-25 04:29 -33.94612 151.17816 29 ft 16 kts 347°
2026-04-25 04:30 -33.94500 151.17786 29 ft 17 kts 347°
2026-04-25 04:30 -33.94380 151.17750 29 ft 18 kts 345°
2026-04-25 04:30 -33.94249 151.17709 28 ft 22 kts 345°
2026-04-25 04:30 -33.94094 151.17663 27 ft 23 kts 347°
2026-04-25 04:31 -33.93940 151.17622 28 ft 22 kts 347°
2026-04-25 04:31 -33.93791 151.17582 28 ft 22 kts 348°
2026-04-25 04:31 -33.93646 151.17545 28 ft 21 kts 348°
2026-04-25 04:31 -33.93504 151.17509 28 ft 20 kts 349°
2026-04-25 04:32 -33.93367 151.17499 29 ft 20 kts 352°
2026-04-25 04:32 -33.93235 151.17466 29 ft 18 kts 348°
2026-04-25 04:32 -33.93131 151.17439 29 ft 12 kts 348°
2026-04-25 04:32 -33.93072 151.17489 29 ft 12 kts 68°
2026-04-25 04:33 -33.93020 151.17552 29 ft 9 kts 36°
2026-04-25 04:33 -33.93021 151.17606 29 ft 7 kts 149°
2026-04-25 04:33 -33.93060 151.17615 29 ft 5 kts 167°
2026-04-25 04:33 -33.93085 151.17622 29 ft 3 kts 167°
2026-04-25 04:34 -33.93099 151.17626 29 ft 0 kts 168°